| time (UTC) | temp F | wind direction | speed knots | gust knots | rain 1hr in | rain 24hr in | rain mn in | humidity % | barometer mb |
| 20260508023012 | 49 | 242 | 2.6 | 7.0 | 0.00 | 0.82 | 0.82 | 100 | 1001.5 |
| 20260508021509 | 49 | 202 | 1.7 | 3.5 | 0.00 | 0.82 | 0.82 | 100 | 1001.7 |
| 20260508020012 | 50 | 202 | 0.0 | 5.2 | 0.00 | 0.82 | 0.82 | 100 | 1001.8 |
| 20260508014509 | 49 | 201 | 0.0 | 3.5 | 0.00 | 0.82 | 0.82 | 100 | 1001.7 |
| 20260508013008 | 49 | 201 | 0.0 | 3.5 | 0.00 | 0.82 | 0.82 | 100 | 1001.6 |
| 20260508011509 | 49 | 201 | 0.9 | 5.2 | 0.00 | 0.82 | 0.82 | 100 | 1001.5 |
| 20260508010020 | 49 | 202 | 1.7 | 5.2 | 0.00 | 0.82 | 0.82 | 100 | 1002.0 |
| 20260508004506 | 48 | 202 | 1.7 | 5.2 | 0.00 | 0.82 | 0.82 | 100 | 1001.9 |
| 20260508003006 | 48 | 202 | 1.7 | 6.1 | 0.00 | 0.82 | 0.82 | 100 | 1001.8 |
| 20260508001508 | 48 | 187 | 1.7 | 7.8 | 0.00 | 0.82 | 0.82 | 100 | 1001.8 |
| 20260508000006 | 49 | 203 | 0.9 | 7.0 | 0.00 | 0.82 | 0.82 | 100 | 1002.1 |
| 20260507234508 | 49 | 199 | 2.6 | 10.4 | 0.00 | 0.82 | 0.82 | 99 | 1001.9 |
| 20260507233005 | 49 | 197 | 2.6 | 9.6 | 0.00 | 0.82 | 0.82 | 99 | 1002.0 |
| 20260507231503 | 49 | 191 | 4.3 | 10.4 | 0.00 | 0.82 | 0.82 | 99 | 1002.5 |
| 20260507230003 | 50 | 192 | 3.5 | 9.6 | 0.00 | 0.82 | 0.82 | 99 | 1002.3 |
| 20260507224503 | 50 | 191 | 4.3 | 13.0 | 0.00 | 0.82 | 0.82 | 99 | 1002.7 |
| 20260507223002 | 50 | 221 | 3.5 | 8.7 | 0.00 | 0.82 | 0.82 | 98 | 1002.4 |
| 20260507221501 | 50 | 195 | 4.3 | 14.8 | 0.00 | 0.82 | 0.82 | 99 | 1002.6 |
| 20260507220100 | 50 | 218 | 7.0 | 16.5 | 0.00 | 0.82 | 0.82 | 99 | 1002.7 |
| 20260507214600 | 49 | 256 | 5.2 | 12.2 | 0.03 | 0.82 | 0.82 | 99 | 1002.9 |
| 20260507213059 | 49 | 214 | 5.2 | 17.4 | 0.09 | 0.82 | 0.82 | 99 | 1002.4 |
| 20260507211601 | 49 | 196 | 7.0 | 17.4 | 0.17 | 0.82 | 0.82 | 99 | 1001.8 |
| 20260507210053 | 49 | 183 | 7.0 | 15.6 | 0.24 | 0.82 | 0.82 | 99 | 1002.4 |
| 20260507204550 | 50 | 179 | 4.3 | 9.6 | 0.31 | 0.79 | 0.79 | 99 | 1003.4 |
| 20260507203048 | 51 | 187 | 4.3 | 10.4 | 0.39 | 0.72 | 0.72 | 99 | 1003.7 |
| 20260507201545 | 51 | 184 | 4.3 | 8.7 | 0.39 | 0.65 | 0.65 | 98 | 1004.0 |
| 20260507200042 | 51 | 233 | 1.7 | 13.0 | 0.38 | 0.57 | 0.57 | 99 | 1004.8 |
| 20260507194541 | 51 | 250 | 4.3 | 13.9 | 0.31 | 0.46 | 0.46 | 98 | 1005.0 |
| 20260507193046 | 51 | 229 | 7.0 | 14.8 | 0.24 | 0.34 | 0.34 | 98 | 1004.7 |
| 20260507191538 | 52 | 203 | 7.8 | 16.5 | 0.17 | 0.24 | 0.24 | 97 | 1004.8 |
| 20260507190039 | 52 | 215 | 8.7 | 20.9 | 0.13 | 0.20 | 0.20 | 97 | 1004.8 |
| 20260507184536 | 52 | 154 | 7.8 | 13.0 | 0.08 | 0.15 | 0.15 | 97 | 1005.0 |
| 20260507183035 | 53 | 198 | 7.0 | 14.8 | 0.02 | 0.09 | 0.09 | 96 | 1005.3 |
| 20260507181534 | 53 | 197 | 6.1 | 13.9 | 0.01 | 0.08 | 0.08 | 95 | 1004.9 |
| 20260507180032 | 54 | 202 | 7.8 | 20.9 | 0.00 | 0.07 | 0.07 | 93 | 1004.9 |
| 20260507174545 | 56 | 174 | 8.7 | 17.4 | 0.00 | 0.07 | 0.07 | 91 | 1005.0 |
| 20260507173029 | 55 | 200 | 5.2 | 13.0 | 0.00 | 0.07 | 0.07 | 93 | 1005.4 |
| 20260507171540 | 54 | 185 | 3.5 | 13.0 | 0.00 | 0.07 | 0.07 | 92 | 1005.6 |
| 20260507170026 | 55 | 208 | 7.8 | 16.5 | 0.00 | 0.07 | 0.07 | 93 | 1005.9 |
| 20260507164525 | 55 | 196 | 7.0 | 16.5 | 0.00 | 0.07 | 0.07 | 93 | 1006.4 |
| 20260507163023 | 55 | 187 | 11.3 | 26.1 | 0.00 | 0.07 | 0.07 | 93 | 1006.6 |
| 20260507161521 | 55 | 205 | 9.6 | 24.3 | 0.00 | 0.07 | 0.07 | 92 | 1007.3 |
| 20260507160018 | 55 | 214 | 9.6 | 18.2 | 0.00 | 0.07 | 0.07 | 93 | 1007.7 |
| 20260507154519 | 55 | 250 | 9.6 | 21.7 | 0.00 | 0.07 | 0.07 | 93 | 1007.7 |
| 20260507153018 | 55 | 225 | 8.7 | 25.2 | 0.00 | 0.07 | 0.07 | 94 | 1008.2 |
| 20260507151511 | 55 | 202 | 10.4 | 20.0 | 0.00 | 0.07 | 0.07 | 94 | 1008.5 |
| 20260507150008 | 54 | 180 | 8.7 | 22.6 | 0.00 | 0.07 | 0.07 | 95 | 1008.7 |
| 20260507144506 | 54 | 208 | 7.8 | 17.4 | 0.00 | 0.07 | 0.07 | 96 | 1009.1 |
| 20260507143003 | 53 | 211 | 9.6 | 20.9 | 0.00 | 0.07 | 0.07 | 96 | 1009.7 |
| 20260507141501 | 54 | 229 | 10.4 | 20.9 | 0.00 | 0.07 | 0.07 | 95 | 1010.0 |
| 20260507140113 | 54 | 219 | 10.4 | 22.6 | 0.00 | 0.07 | 0.07 | 96 | 1010.2 |
| 20260507134610 | 54 | 187 | 9.6 | 22.6 | 0.00 | 0.07 | 0.07 | 96 | 1010.1 |
| 20260507133106 | 54 | 250 | 7.8 | 19.1 | 0.00 | 0.07 | 0.07 | 96 | 1010.4 |
| 20260507131621 | 54 | 185 | 8.7 | 18.2 | 0.01 | 0.07 | 0.07 | 97 | 1010.2 |
| 20260507130106 | 53 | 167 | 7.0 | 13.0 | 0.01 | 0.07 | 0.07 | 96 | 1010.0 |
| 20260507124600 | 54 | 192 | 3.5 | 20.0 | 0.01 | 0.07 | 0.07 | 97 | 1010.3 |
| 20260507123056 | 54 | 187 | 8.7 | 21.7 | 0.01 | 0.07 | 0.07 | 97 | 1010.5 |
| 20260507121548 | 53 | 191 | 11.3 | 19.1 | 0.00 | 0.06 | 0.06 | 97 | 1011.0 |
| 20260507120047 | 53 | 222 | 10.4 | 18.2 | 0.00 | 0.06 | 0.06 | 98 | 1011.1 |
| 20260507114546 | 53 | 187 | 11.3 | 18.2 | 0.00 | 0.06 | 0.06 | 98 | 1011.8 |
| 20260507113105 | 52 | 220 | 9.6 | 21.7 | 0.00 | 0.06 | 0.06 | 98 | 1011.8 |
| 20260507111544 | 52 | 200 | 7.8 | 13.9 | 0.00 | 0.06 | 0.06 | 98 | 1011.9 |
| 20260507110041 | 52 | 185 | 7.8 | 15.6 | 0.00 | 0.06 | 0.06 | 98 | 1011.8 |
| 20260507104542 | 52 | 189 | 7.8 | 19.1 | 0.00 | 0.06 | 0.06 | 98 | 1011.9 |
| 20260507103036 | 51 | 198 | 9.6 | 18.2 | 0.00 | 0.06 | 0.06 | 98 | 1012.6 |
| 20260507101536 | 51 | 182 | 6.1 | 14.8 | 0.00 | 0.06 | 0.06 | 98 | 1012.2 |
| 20260507100042 | 51 | 179 | 4.3 | 11.3 | 0.01 | 0.06 | 0.06 | 99 | 1012.2 |
| 20260507094528 | 51 | 192 | 6.1 | 14.8 | 0.02 | 0.06 | 0.06 | 99 | 1012.5 |
| 20260507093028 | 52 | 202 | 5.2 | 11.3 | 0.04 | 0.06 | 0.06 | 99 | 1012.9 |
| 20260507091523 | 52 | 181 | 6.1 | 9.6 | 0.06 | 0.06 | 0.06 | 99 | 1012.6 |
| 20260507090022 | 51 | 202 | 3.5 | 6.1 | 0.05 | 0.06 | 0.06 | 99 | 1012.9 |
| 20260507084542 | 51 | 202 | 3.5 | 8.7 | 0.04 | 0.04 | 0.04 | 99 | 1012.9 |
| 20260507083024 | 51 | 194 | 3.5 | 8.7 | 0.02 | 0.02 | 0.02 | 98 | 1012.9 |
| 20260507081516 | 51 | 188 | 3.5 | 8.7 | 0.01 | 0.01 | 0.01 | 98 | 1012.9 |
| 20260507080015 | 51 | 189 | 4.3 | 10.4 | 0.00 | 0.00 | 0.00 | 98 | 1013.2 |
| 20260507074511 | 51 | 194 | 3.5 | 14.8 | 0.00 | 0.00 | 0.00 | 98 | 1013.8 |
| 20260507073009 | 51 | 192 | 5.2 | 11.3 | 0.00 | 0.00 | 0.00 | 98 | 1014.0 |
| 20260507071515 | 52 | 184 | 5.2 | 14.8 | 0.00 | 0.00 | 0.00 | 98 | 1014.2 |
| 20260507070015 | 52 | 189 | 7.0 | 11.3 | 0.00 | 0.00 | 0.00 | 98 | 1014.0 |
| 20260507064503 | 52 | 178 | 5.2 | 11.3 | 0.00 | 0.00 | 0.00 | 97 | 1014.3 |
| 20260507063059 | 52 | 188 | 5.2 | 11.3 | 0.00 | 0.00 | 0.00 | 97 | 1014.4 |
| 20260507061556 | 52 | 175 | 4.3 | 9.6 | 0.00 | 0.00 | 0.00 | 97 | 1014.6 |
| 20260507060053 | 52 | 207 | 4.3 | 10.4 | 0.00 | 0.00 | 0.00 | 97 | 1014.9 |
| 20260507054550 | 52 | 196 | 4.3 | 10.4 | 0.00 | 0.00 | 0.00 | 97 | 1015.0 |
| 20260507053047 | 53 | 201 | 4.3 | 13.0 | 0.00 | 0.00 | 0.00 | 97 | 1015.1 |
| 20260507051544 | 53 | 220 | 5.2 | 11.3 | 0.00 | 0.00 | 0.00 | 97 | 1015.5 |
| 20260507044550 | 53 | 200 | 7.0 | 12.2 | 0.00 | 0.00 | 0.00 | 97 | 1016.0 |
| 20260507043037 | 53 | 215 | 4.3 | 11.3 | 0.00 | 0.00 | 0.00 | 97 | 1016.3 |
| 20260507041536 | 53 | 222 | 5.2 | 13.9 | 0.00 | 0.00 | 0.00 | 97 | 1016.5 |
| 20260507040033 | 53 | 220 | 6.1 | 13.0 | 0.00 | 0.00 | 0.00 | 97 | 1016.6 |
| 20260507034536 | 53 | 194 | 7.0 | 12.2 | 0.00 | 0.00 | 0.00 | 97 | 1016.9 |
| 20260507033036 | 54 | 234 | 3.5 | 13.0 | 0.00 | 0.00 | 0.00 | 96 | 1017.1 |
| 20260507031531 | 54 | 237 | 6.1 | 13.9 | 0.00 | 0.00 | 0.00 | 96 | 1017.3 |
| 20260507030024 | 54 | 229 | 4.3 | 12.2 | 0.00 | 0.00 | 0.00 | 95 | 1017.4 |
| 20260507024522 | 54 | 231 | 4.3 | 13.9 | 0.00 | 0.00 | 0.00 | 94 | 1017.5 |